SKYSAT-C7

Last updated on Sun Oct 26 2025 00:02:39 GMT+0000 (Coordinated Universal Time)

1 42991U 17068E 25298.32340815 .00016462 00000+0 53178-3 0 9994 2 42991 97.4259 69.2329 0003659 205.9755 154.1304 15.32175478446364
UTC large
Height (km)
Speed (km/s)
/
Latitude / Longitude
Inclination (degrees)
Orbital Period (minutes)
Azimuth
Elevation
Range (km)
Doppler Factor

Next 0 passes for location: London (51.5072 / 0.1276)

Sorry there are no passes over London.